[[{"header":{"parameterUnit":"m.s-1","parameterCategory":1,"la1":30.2991,"la2":30.254,"lo1":-89.0895,"lo2":-89.0444,"dy":0.0017,"dx":0.0017,"nx":28,"ny":28,"refTime":"2024-10-21T21:00:00:Z","depth":0,"parameterNumber":2,"parameterNumberName":"U-component_of_WINDS"},"data":[0,0,0,0,0,0,0,0,0,0,0,0,0,0,0,0,0,0,0,0,0,0,0,0,0,0,0,0,0,0,0,0,0,0,0,0,0,0,0,0,0,0,0,0,0,0,0,0,0,0,0,0,0,0,0,0,0,0,0.2978,0.2978,0,0.2971,0.2971,0.2971,0.2959,0.2959,0.2959,0.2958,0.2951,0.2951,0.2951,0,0,0,0,0,0,0,0,0,0,0,0,0,0.2983,0.2983,0.2978,0.2978,0.2978,0.2971,0.2971,0.2971,0.2959,0.2959,0.2959,0.2958,0.2951,0.2951,0.2951,0,0,0,0,0,0,0,0,0,0,0,0,0,0.2979,0.2983,0.2978,0.2971,0.2971,0.2971,0.2971,0.2971,0.2959,0.2959,0.2958,0.2958,0.2951,0.2951,0.2951,0.2958,0,0,0.2951,0.2951,0,0,0,0,0,0,0,0,0.2979,0.2979,0.2973,0.2972,0.2971,0.2966,0.297,0.2967,0.2959,0.2964,0.2958,0.2958,0.2956,0.2956,0.2955,0.2958,0.2958,0.2951,0.2951,0.2951,0.2951,0,0,0,0,0,0,0,0.2979,0.2979,0.2976,0.2972,0.2972,0.2969,0.2968,0.2969,0.2962,0.2963,0.2962,0.2962,0.2956,0.2955,0.2955,0.2957,0.2951,0.2951,0.2951,0.2951,0.2966,0.2967,0,0,0,0,0,0,0.2981,0.2979,0.2976,0.2975,0.2974,0.2969,0.2968,0.2968,0.2962,0.2961,0.2962,0.2961,0.2955,0.2955,0.2955,0.2963,0.2951,0.2951,0.2951,0.2966,0.2966,0.2967,0,0,0,0,0,0,0.2981,0.298,0.2976,0.2977,0.2976,0.2969,0.2969,0.2968,0.2967,0.2961,0.296,0.2963,0.2955,0.2955,0.2958,0.2963,0.2951,0.2952,0.2966,0.2966,0.2967,0.2979,0,0,0,0,0,0,0.2981,0.2981,0.2983,0.2977,0.2976,0.2979,0.2969,0.2968,0.2967,0.2966,0.2961,0.296,0.2955,0.2958,0.2958,0.2962,0.2952,0.2965,0.2966,0.2967,0.2978,0.298,0.2982,0,0,0,0,0,0.2981,0.2986,0.2983,0.2983,0.2979,0.2979,0.2979,0.2972,0.2968,0.297,0.2966,0.296,0.2962,0.2958,0.2958,0.2963,0.2965,0.2966,0.2966,0.2977,0.298,0.2981,0,0,0,0,0,0,0.2992,0.2985,0.2981,0.2985,0.2983,0.2977,0.298,0.2975,0.2974,0.2973,0.2965,0.2964,0.2968,0.2966,0.2961,0.297,0.2963,0.2963,0.2971,0.2973,0.2975,0.2975,0.2952,0,0,0,0,0,0.2995,0.2996,0.299,0.2993,0.2993,0.2986,0.2986,0.2982,0.2979,0.2978,0.2974,0.2972,0.2972,0.2973,0.2972,0.2978,0.2977,0.2981,0.2983,0.2984,0.2985,0.2989,0.2991,0.297,0.297,0.297,0,0,0.3001,0.2997,0.2998,0.2996,0.2993,0.2994,0.2986,0.2987,0.2988,0.2978,0.2981,0.2978,0.2975,0.298,0.2982,0.2978,0.2991,0.2986,0.2987,0.2987,0.299,0.2992,0.2994,0.297,0.297,0.297,0,0,0.3012,0.3009,0.3012,0.3011,0.3007,0.3004,0.3004,0.3,0.2998,0.3,0.2993,0.2995,0.2995,0.2993,0.2993,0.3005,0.3,0.3005,0.3014,0.3017,0.3019,0.302,0.3025,0.3027,0.3006,0.3006,0.3006,0,0.302,0.3021,0.3015,0.3017,0.3016,0.3008,0.3012,0.301,0.3007,0.3007,0.3003,0.3004,0.3001,0.3006,0.3009,0.3009,0.301,0.3005,0.3019,0.3021,0.3022,0.3026,0.3028,0.3007,0.3007,0.3007,0.3007,0,0.3031,0.3032,0.3035,0.3032,0.3032,0.3035,0.3029,0.303,0.3026,0.3023,0.3026,0.3023,0.3023,0.3023,0.3019,0.3028,0.3025,0.3021,0.3013,0.3025,0.3029,0.303,0.3008,0.3008,0.3007,0.3007,0,0,0.3048,0.3043,0.3044,0.3043,0.3039,0.304,0.3043,0.3043,0.3044,0.3042,0.3045,0.3046,0.3042,0.3041,0.3037,0.304,0.305,0.3035,0.3034,0.3038,0.306,0.3064,0.3065,0.3047,0.3048,0.3048,0.306,0,0.3058,0.3062,0.3057,0.3063,0.3064,0.3057,0.306,0.3058,0.3056,0.3057,0.3054,0.3055,0.3049,0.3049,0.3051,0.3049,0.3055,0.3048,0.305,0.305,0.305,0.3068,0.3071,0.3083,0.3062,0.3062,0.3062,0,0.307,0.307,0.3075,0.3073,0.3073,0.3075,0.3075,0.3076,0.3074,0.3072,0.3072,0.3068,0.3071,0.3064,0.3069,0.3064,0.3065,0.3064,0.3064,0.3064,0.3056,0.3068,0.3086,0.3088,0.3065,0.3064,0.3064,0,0.3082,0.3083,0.3087,0.3086,0.3083,0.3085,0.3084,0.3082,0.3082,0.3082,0.3083,0.3083,0.3083,0.3084,0.308,0.3075,0.3085,0.3078,0.3084,0.3084,0.3086,0.3086,0.3105,0.3087,0.3087,0.3087,0.3087,0,0.3094,0.3098,0.3092,0.3094,0.3098,0.3093,0.3098,0.3096,0.3095,0.3097,0.3091,0.3094,0.3088,0.309,0.3087,0.3092,0.3092,0.309,0.3089,0.3091,0.3091,0.3091,0.309,0.3087,0.3087,0.3087,0.3087,0,0.3108,0.3104,0.3107,0.3105,0.3104,0.3107,0.3105,0.3107,0.3105,0.3108,0.3108,0.3104,0.3106,0.3103,0.3104,0.3102,0.3108,0.3106,0.3109,0.3108,0.3114,0.3114,0.3134,0.3136,0.3117,0.3117,0.3117,0,0.3115,0.3118,0.3116,0.3117,0.3116,0.3118,0.3118,0.3114,0.3115,0.3114,0.3117,0.3118,0.3119,0.3123,0.312,0.3122,0.3119,0.3127,0.312,0.3121,0.312,0.3119,0.312,0.3128,0.3128,0.3128,0.3128,0,0.3129,0.3128,0.3128,0.3129,0.313,0.3131,0.313,0.3132,0.3127,0.3129,0.3131,0.3132,0.3134,0.3135,0.3136,0.3136,0.3131,0.3131,0.3132,0.3133,0.3134,0.3134,0.3112,0.313,0.313,0.313,0.313,0.313,0.314,0.3142,0.3141,0.3143,0.3143,0.3143,0.3145,0.3143,0.3145,0.3146,0.3144,0.3147,0.3146,0.3147,0.3147,0.315,0.3147,0.3148,0.3149,0.3149,0.315,0.3135,0.315,0.315,0.315,0.315,0.315,0,0.3154,0.3153,0.3154,0.3155,0.3156,0.3153,0.3153,0.3154,0.3157,0.3157,0.3158,0.3161,0.3163,0.3162,0.3164,0.3166,0.3164,0.3167,0.3166,0.3166,0.3153,0.3152,0.3168,0.3168,0.3168,0.3168,0.3168,0.3168,0.3161,0.3165,0.3163,0.3168,0.3167,0.317,0.317,0.3171,0.3171,0.3174,0.3176,0.3175,0.3175,0.3177,0.3179,0.3178,0.3179,0.3183,0.3181,0.3169,0.3167,0.3165,0.3164,0.3183,0.3183,0.3194,0.3194,0.3195]},{"header":{"parameterUnit":"m.s-1","parameterCategory":1,"la1":30.2991,"la2":30.254,"lo1":-89.0895,"lo2":-89.0444,"dy":0.0017,"dx":0.0017,"nx":28,"ny":28,"refTime":"2024-10-21T21:00:00:Z","depth":0,"parameterNumber":3,"parameterNumberName":"V-component_of_WINDS"},"data":[0,0,0,0,0,0,0,0,0,0,0,0,0,0,0,0,0,0,0,0,0,0,0,0,0,0,0,0,0,0,0,0,0,0,0,0,0,0,0,0,0,0,0,0,0,0,0,0,0,0,0,0,0,0,0,0,0,0,-1.8398,-1.8399,0,-1.8452,-1.8452,-1.8453,-1.8434,-1.8433,-1.8432,-1.8431,-1.8486,-1.8489,-1.8491,0,0,0,0,0,0,0,0,0,0,0,0,0,-1.828,-1.8282,-1.8398,-1.8399,-1.8399,-1.8452,-1.8452,-1.8453,-1.8434,-1.8433,-1.8431,-1.843,-1.8485,-1.8488,-1.8492,0,0,0,0,0,0,0,0,0,0,0,0,0,-1.8332,-1.8283,-1.8398,-1.8396,-1.8397,-1.8452,-1.8453,-1.8453,-1.8435,-1.8433,-1.8431,-1.8429,-1.8484,-1.8488,-1.8492,-1.8552,0,0,-1.8504,-1.8506,0,0,0,0,0,0,0,0,-1.8329,-1.8336,-1.8396,-1.8396,-1.8397,-1.8434,-1.8431,-1.8487,-1.8435,-1.842,-1.843,-1.8428,-1.847,-1.8475,-1.8489,-1.8555,-1.8557,-1.8504,-1.8507,-1.8508,-1.8509,0,0,0,0,0,0,0,-1.8326,-1.8334,-1.8419,-1.8397,-1.8397,-1.8393,-1.8398,-1.8442,-1.8455,-1.8421,-1.842,-1.8427,-1.847,-1.8486,-1.8491,-1.8558,-1.8504,-1.8508,-1.851,-1.8511,-1.8675,-1.8677,0,0,0,0,0,0,-1.8321,-1.8331,-1.8418,-1.8421,-1.8358,-1.8397,-1.8403,-1.8424,-1.8454,-1.8457,-1.8428,-1.8426,-1.848,-1.8486,-1.8492,-1.8565,-1.8508,-1.8512,-1.8514,-1.8673,-1.8676,-1.8678,0,0,0,0,0,0,-1.8319,-1.8329,-1.8415,-1.8376,-1.8386,-1.8401,-1.8425,-1.8426,-1.8441,-1.8459,-1.8462,-1.8441,-1.8479,-1.8487,-1.8537,-1.8567,-1.8514,-1.8517,-1.8671,-1.8674,-1.8677,-1.8711,0,0,0,0,0,0,-1.8316,-1.8329,-1.8351,-1.8376,-1.8389,-1.846,-1.8427,-1.8429,-1.8448,-1.8445,-1.8472,-1.8475,-1.8478,-1.8532,-1.8541,-1.8571,-1.852,-1.8668,-1.8672,-1.8676,-1.8707,-1.8715,-1.8721,0,0,0,0,0,-1.8312,-1.8359,-1.8353,-1.8363,-1.8417,-1.8461,-1.8468,-1.847,-1.8451,-1.8474,-1.8485,-1.8474,-1.8562,-1.8537,-1.8548,-1.8579,-1.8667,-1.8671,-1.8676,-1.8704,-1.8713,-1.8721,0,0,0,0,0,0,-1.8337,-1.8362,-1.8356,-1.8412,-1.8435,-1.8458,-1.8487,-1.848,-1.8509,-1.8505,-1.8506,-1.8513,-1.8565,-1.8577,-1.8549,-1.8639,-1.8611,-1.8618,-1.8629,-1.8638,-1.8645,-1.8641,-1.8523,0,0,0,0,0,-1.835,-1.8383,-1.8403,-1.8451,-1.8463,-1.8473,-1.8492,-1.8492,-1.8515,-1.8525,-1.854,-1.8563,-1.8596,-1.8618,-1.8649,-1.8709,-1.8715,-1.8736,-1.8743,-1.8748,-1.8754,-1.8788,-1.8797,-1.8693,-1.8693,-1.8693,0,0,-1.8376,-1.8393,-1.8414,-1.8457,-1.8474,-1.8509,-1.8481,-1.8519,-1.8545,-1.8531,-1.8579,-1.8591,-1.8617,-1.8673,-1.8698,-1.8685,-1.8785,-1.8754,-1.8758,-1.8762,-1.8793,-1.8803,-1.8812,-1.8696,-1.8695,-1.8695,0,0,-1.844,-1.8457,-1.8499,-1.8517,-1.8544,-1.855,-1.856,-1.8585,-1.8592,-1.8641,-1.8631,-1.8661,-1.8718,-1.8737,-1.8754,-1.8826,-1.8817,-1.8836,-1.8873,-1.8905,-1.8913,-1.8921,-1.8947,-1.8957,-1.8842,-1.8842,-1.8842,0,-1.8469,-1.8521,-1.8522,-1.8561,-1.858,-1.8568,-1.8611,-1.8628,-1.8664,-1.8678,-1.8662,-1.8733,-1.8749,-1.881,-1.8827,-1.8841,-1.8853,-1.8834,-1.8912,-1.892,-1.8926,-1.8952,-1.8961,-1.8845,-1.8844,-1.8844,-1.8844,0,-1.8556,-1.8592,-1.8623,-1.8657,-1.868,-1.872,-1.8728,-1.875,-1.8748,-1.8756,-1.8806,-1.8826,-1.8861,-1.8875,-1.8873,-1.8935,-1.8926,-1.8911,-1.8884,-1.8938,-1.8962,-1.8972,-1.8848,-1.8847,-1.8846,-1.8846,0,0,-1.8639,-1.8673,-1.8685,-1.87,-1.8728,-1.8757,-1.8797,-1.8831,-1.8851,-1.8875,-1.891,-1.8958,-1.8944,-1.8964,-1.8964,-1.8992,-1.9048,-1.8974,-1.8974,-1.8987,-1.9119,-1.913,-1.9141,-1.9042,-1.9044,-1.9046,-1.9117,0,-1.8707,-1.8777,-1.8779,-1.8844,-1.8878,-1.8867,-1.8902,-1.8923,-1.8932,-1.8962,-1.8972,-1.9006,-1.8985,-1.8997,-1.9024,-1.9036,-1.9075,-1.9031,-1.9075,-1.9076,-1.9069,-1.9154,-1.9166,-1.9232,-1.9126,-1.9127,-1.9129,0,-1.8795,-1.8823,-1.8891,-1.8915,-1.8929,-1.8961,-1.8992,-1.9021,-1.9045,-1.9049,-1.9071,-1.9067,-1.9108,-1.9078,-1.9136,-1.9106,-1.9124,-1.9132,-1.9135,-1.914,-1.9106,-1.9161,-1.9253,-1.9263,-1.9143,-1.9142,-1.9141,0,-1.885,-1.8904,-1.8952,-1.8966,-1.8994,-1.9017,-1.903,-1.9052,-1.9073,-1.91,-1.9114,-1.9146,-1.9163,-1.9188,-1.9193,-1.9171,-1.9251,-1.9221,-1.9256,-1.9256,-1.9274,-1.9273,-1.9371,-1.9285,-1.9284,-1.9284,-1.9284,0,-1.8926,-1.8969,-1.8977,-1.9007,-1.9054,-1.9056,-1.9102,-1.9114,-1.9133,-1.9165,-1.9157,-1.9187,-1.9192,-1.9223,-1.9227,-1.9274,-1.9282,-1.9287,-1.9288,-1.9288,-1.9288,-1.9301,-1.9296,-1.9287,-1.9286,-1.9286,-1.9285,0,-1.8996,-1.9003,-1.9055,-1.9078,-1.9084,-1.9118,-1.9138,-1.9166,-1.9174,-1.9214,-1.9224,-1.9236,-1.9273,-1.928,-1.9322,-1.9325,-1.9382,-1.9377,-1.9374,-1.9373,-1.9408,-1.9405,-1.9518,-1.9534,-1.9436,-1.9437,-1.9438,0,-1.9044,-1.9077,-1.9103,-1.9123,-1.9138,-1.9171,-1.9192,-1.9194,-1.9216,-1.9246,-1.9271,-1.9307,-1.9335,-1.9394,-1.9407,-1.944,-1.9436,-1.9474,-1.9441,-1.9441,-1.9438,-1.9436,-1.944,-1.948,-1.9481,-1.9482,-1.9483,0,-1.913,-1.9132,-1.9162,-1.9194,-1.9219,-1.9244,-1.9268,-1.9285,-1.9291,-1.9316,-1.9353,-1.9375,-1.9419,-1.9454,-1.9487,-1.9501,-1.9493,-1.9493,-1.9503,-1.9504,-1.9501,-1.9504,-1.9392,-1.9491,-1.949,-1.9489,-1.9489,-1.9489,-1.9191,-1.9219,-1.9242,-1.9276,-1.9294,-1.9317,-1.9345,-1.9356,-1.9387,-1.9422,-1.9422,-1.9463,-1.9486,-1.9529,-1.9545,-1.9577,-1.9565,-1.9579,-1.9583,-1.9587,-1.959,-1.9495,-1.9583,-1.9582,-1.9582,-1.9582,-1.9582,0,-1.9277,-1.9291,-1.9322,-1.9355,-1.9382,-1.9372,-1.9398,-1.9421,-1.9457,-1.9479,-1.9508,-1.955,-1.9584,-1.96,-1.9634,-1.9657,-1.9654,-1.9666,-1.9664,-1.9668,-1.9598,-1.9587,-1.9667,-1.9667,-1.9667,-1.9667,-1.9667,-1.9667,-1.9325,-1.9372,-1.9377,-1.9433,-1.9447,-1.9487,-1.9503,-1.9523,-1.9541,-1.9589,-1.9618,-1.9627,-1.9647,-1.9682,-1.9713,-1.9717,-1.973,-1.9744,-1.9746,-1.9681,-1.9673,-1.9664,-1.9653,-1.9746,-1.9746,-1.9813,-1.9813,-1.9814]}]]